CAPE
15 14 9 6 7 28 27 27 23 7 3 2 8 0 0 1 0 3 3 2 1 0 0 0 1 1 1 1 1 33 80 111 121 118 88 105 98 108
12 9 11 16 9 3 3 14 47 34 15 41 1 0 0 0 0 6 6 1 4 1 1 1 1 1 1 1 1 1 1 3 12 36 58 43 34 46
1 11 8 14 13 10 3 3 5 4 33 15 3 3 0 1 1 6 7 7 7 7 3 1 1 4 7 4 2 2 2 2 2 1 1 14 20 27
1 4 8 14 6 6 12 4 4 5 4 30 1 3 1 0 0 5 5 11 13 12 7 7 7 4 3 4 5 5 3 2 2 3 1 1 1 3
1 1 6 5 5 5 5 5 5 3 4 2 3 2 4 2 1 3 1 2 3 9 11 9 5 8 8 5 5 6 4 2 3 4 3 2 1 1
1 2 0 9 6 3 4 4 4 3 3 3 4 3 3 2 3 3 5 0 1 0 5 8 6 10 10 7 8 9 9 6 5 2 3 3 2 2
0 2 5 12 20 24 4 2 2 2 2 2 3 1 2 1 3 4 1 4 0 1 2 1 7 5 7 7 9 6 8 10 10 8 7 3 1 4
0 0 0 3 5 13 14 9 4 1 3 4 4 5 3 2 2 2 0 0 0 0 1 0 1 7 9 6 12 12 7 9 7 8 10 7 3 3
0 0 1 2 0 2 3 4 7 8 6 3 4 4 2 2 2 0 3 0 0 0 0 0 0 0 14 4 5 5 7 6 4 1 5 7 5 3
0 0 0 0 0 0 0 0 0 0 0 1 0 0 0 0 0 0 0 1 0 0 0 0 0 0 0 0 3 4 11 1 0 0 1 3 6 2
0 0 0 0 2 1 0 0 0 0 0 3 2 1 1 1 0 0 0 0 0 0 0 0 0 0 0 0 0 0 3 5 0 0 0 2 7 1
0 0 3 0 4 1 0 0 0 0 0 0 0 0 0 0 0 0 0 0 0 0 0 0 0 0 0 0 0 0 0 1 0 0 0 1 1 3
0 0 0 3 3 4 1 0 0 0 0 0 0 0 0 0 0 0 0 0 0 0 0 0 0 0 0 0 0 0 0 0 0 0 0 0 0 0
0 0 0 5 5 3 0 3 0 0 0 0 0 0 0 0 0 0 0 0 0 0 0 0 0 0 0 0 0 0 0 0 0 0 0 0 0 0
0 0 2 2 1 0 4 2 0 0 0 0 0 0 0 0 0 0 0 0 0 0 0 0 0 0 0 0 0 0 0 0 0 0 0 0 0 0
0 0 0 0 0 0 0 0 0 0 0 0 0 0 0 0 0 0 0 0 0 0 0 0 0 0 0 0 0 0 0 0 0 0 0 0 0 0
0 0 0 0 0 0 0 0 0 0 0 0 0 0 0 0 0 0 0 0 0 0 0 0 0 0 0 0 0 0 0 0 0 0 0 0 0 0
0 0 0 0 0 0 0 0 0 0 0 0 0 0 0 0 0 0 0 0 0 0 0 0 0 0 0 0 0 0 0 0 0 0 0 0 0 0
0 0 0 0 0 0 0 0 0 0 0 0 0 0 0 0 0 0 0 0 0 0 0 0 0 0 0 0 0 0 0 0 0 0 0 0 0 0
0 0 0 0 0 0 0 0 0 0 0 0 0 0 0 0 0 0 0 0 0 0 0 0 0 0 0 0 0 0 0 0 0 0 0 0 0 0
0 0 0 0 0 0 0 0 0 0 0 0 0 0 0 0 0 0 0 0 0 0 0 0 0 2 0 0 0 0 0 0 0 1 0 0 0 0
0 0 0 0 0 0 0 0 0 0 0 0 0 0 0 0 0 0 0 0 0 0 0 0 0 0 0 1 0 0 0 0 0 0 0 1 0 0
0 0 0 0 0 0 0 0 0 0 0 0 0 0 0 0 0 0 0 0 0 0 0 0 0 0 0 1 0 0 0 0 0 0 0 0 1 2
CIN
0 0 0 0 0 0 0 -1 0 0 -2 -4 -9 0 0 0 0 0 0 0 0 0 0 0 0 0 0 0 0 -83 -94 -106 -111 -105 -107 -103 -97 -93
0 0 0 0 0 0 0 0 0 0 0 -1 -10 0 0 0 0 0 0 0 0 0 0 0 0 0 0 0 0 0 0 -79 -120 -110 -135 -150 -141 -126
0 0 0 0 0 0 0 0 0 0 0 -5 0 0 0 0 0 0 0 0 0 0 0 0 0 0 0 0 0 0 0 0 0 0 0 -139 -119 -119
0 0 0 0 0 0 0 0 0 0 0 -4 0 0 0 0 0 0 0 0 0 0 0 0 0 0 0 0 0 0 0 0 0 0 0 0 0 -121
0 0 0 0 0 0 0 0 0 0 0 0 0 0 0 0 0 0 0 0 0 0 0 0 0 0 0 0 0 0 0 0 0 0 0 0 0 0
-1 0 0 0 0 0 0 0 0 0 0 0 0 0 0 0 0 0 0 0 0 0 0 0 0 0 0 0 0 0 0 0 0 0 0 0 0 0
0 0 0 0 0 0 0 0 0 0 0 0 0 0 0 0 0 0 0 0 0 0 0 0 0 0 0 0 0 0 0 0 0 0 0 0 0 0
0 0 -1 0 0 0 0 0 0 0 0 0 0 0 0 0 0 0 0 0 0 0 0 0 0 0 0 -1 0 0 0 0 0 0 0 0 0 0
0 0 0 0 0 0 0 0 0 0 0 0 0 0 0 0 0 0 0 0 0 0 0 0 0 0 0 -1 0 0 0 0 0 0 0 0 0 0
0 0 0 0 0 0 0 0 0 0 0 0 0 0 0 0 0 0 0 0 0 0 0 0 0 0 0 0 0 0 0 0 0 0 0 0 0 0
0 0 0 0 0 0 0 0 0 0 0 0 0 0 0 0 0 0 0 0 0 0 0 0 0 0 0 0 0 0 0 0 0 0 0 0 0 0
0 0 0 0 0 0 0 0 0 0 0 0 0 0 0 0 0 0 0 0 0 0 0 0 0 0 0 0 0 0 0 0 0 0 0 0 0 0
0 0 0 0 0 0 0 0 0 0 0 0 0 0 0 0 0 0 0 0 0 0 0 0 0 0 0 0 0 0 0 0 0 0 0 0 0 0
0 0 0 0 0 0 0 0 0 0 0 0 0 0 0 0 0 0 0 0 0 0 0 0 0 0 0 0 0 0 0 0 0 0 0 0 0 0
0 0 0 0 0 0 0 0 0 0 0 0 0 0 0 0 0 0 0 0 0 0 0 0 0 0 0 0 0 0 0 0 0 0 0 0 0 0
0 0 0 0 0 0 0 0 0 0 0 0 0 0 0 0 0 0 0 0 0 0 0 0 0 0 0 0 0 0 0 0 0 0 0 0 0 0
0 0 0 0 0 0 0 0 0 0 0 0 0 0 0 0 0 0 0 0 0 0 0 0 0 0 0 0 0 0 0 0 0 0 0 0 0 0
0 0 0 0 0 0 0 0 0 0 0 0 0 0 0 0 0 0 0 0 0 0 0 0 0 0 0 0 0 0 0 0 0 0 0 0 0 0
0 0 0 0 0 0 0 0 0 0 0 0 0 0 0 0 0 0 0 0 0 0 0 0 0 0 0 0 0 0 0 0 0 0 0 0 0 0
0 0 0 0 0 0 0 0 0 0 0 0 0 0 0 0 0 0 0 0 0 0 0 0 0 0 0 0 0 0 0 0 0 -1 0 -1 0 0
0 0 0 0 0 0 0 0 0 0 0 0 0 0 0 0 0 0 0 0 0 0 0 0 0 0 0 0 0 0 0 0 0 0 -1 -1 0 0
0 0 0 0 0 0 0 0 0 0 0 0 0 0 0 0 0 0 0 0 0 0 0 0 0 0 0 0 0 0 0 0 0 0 0 -1 0 0
0 0 0 0 0 0 0 0 0 0 0 0 0 0 0 0 0 0 0 0 0 0 0 0 0 0 0 0 0 0 0 0 0 0 0 0 0 0
Wind_Speed
10 9 8 7 7 6 6 5 4 3 6 3 3 5 7 8 13 11 13 25 24 20 15 7 9 13 13 13 17 24 27 29 29 30 30 30 29 30
9 12 9 7 7 6 6 3 3 5 4 1 2 4 8 7 10 10 11 21 25 25 27 26 24 21 16 14 12 13 16 20 23 26 29 30 30 31
15 13 14 11 7 6 6 5 4 5 5 3 6 8 7 9 9 9 10 11 13 24 22 25 26 26 25 22 22 21 20 17 11 14 20 26 28 30
15 14 16 11 12 10 6 8 6 7 4 1 7 7 9 9 9 11 9 10 10 20 25 24 24 24 22 24 22 21 22 27 25 22 15 8 17 24
14 15 15 17 15 12 11 9 8 8 9 7 5 6 6 9 7 6 11 10 10 20 18 22 25 26 27 26 28 27 26 24 24 23 23 22 18 18
13 14 15 17 18 15 14 13 11 10 10 9 9 7 6 8 5 7 5 9 9 10 15 17 20 25 28 25 29 29 26 26 27 25 24 24 19 18
13 14 16 22 29 27 13 15 14 11 10 11 11 10 9 7 9 7 5 5 6 11 7 10 9 10 14 21 21 28 27 25 24 23 21 20 19 19
13 14 14 19 20 28 29 33 26 14 15 11 11 10 13 8 8 7 9 5 5 10 7 9 9 9 8 11 21 25 24 23 24 23 23 22 19 16
12 11 13 12 16 14 22 25 27 30 25 13 13 13 12 12 9 10 7 9 7 9 6 6 10 5 7 10 25 24 24 23 23 25 24 22 22 19
7 12 10 13 17 13 12 14 15 15 16 11 13 12 13 12 10 8 8 6 4 10 9 5 8 4 5 6 24 24 23 23 24 26 25 24 21 21
9 12 12 13 24 23 13 14 14 13 16 24 25 26 25 28 22 8 10 7 5 6 12 2 7 5 4 4 6 22 21 23 25 27 25 25 24 17
8 8 26 18 24 24 13 12 14 10 10 12 13 16 17 18 26 15 10 9 4 5 10 4 7 4 5 3 5 9 10 19 21 23 24 24 25 8
6 6 8 24 24 24 21 12 13 7 9 8 9 9 10 11 10 10 9 8 7 3 9 5 5 5 3 5 4 6 10 10 9 12 21 24 25 20
3 5 10 20 23 23 16 22 20 7 6 7 8 9 8 9 8 8 9 6 3 3 6 9 3 5 5 4 3 7 9 7 8 10 10 17 20 22
7 15 19 19 19 13 22 20 10 7 8 9 8 7 5 4 6 8 9 6 8 9 8 11 7 7 2 2 3 4 8 9 10 10 10 10 8 8
8 8 8 9 7 6 8 10 7 5 5 3 3 3 4 5 7 8 8 8 6 7 10 9 10 9 7 5 1 6 7 6 8 9 12 9 9 8
7 6 6 5 6 7 7 8 7 7 6 5 5 6 6 6 7 7 8 6 7 8 9 9 10 8 8 3 4 8 10 8 9 11 12 10 10 10
6 4 3 3 6 6 6 6 7 8 7 7 7 7 7 7 8 8 8 8 8 8 9 9 10 10 8 4 11 8 9 9 11 12 11 11 10 11
6 4 3 3 5 6 6 6 6 7 7 7 7 7 7 7 7 7 7 7 7 7 8 9 10 11 11 11 6 15 12 10 9 10 10 11 12 12
5 4 4 4 5 6 5 6 5 5 6 6 6 6 7 6 6 7 7 4 7 8 8 7 8 9 8 8 8 11 22 12 11 11 10 10 12 24
4 5 4 4 5 5 4 4 3 3 3 3 5 6 5 5 5 6 6 6 5 6 7 8 9 13 7 7 6 8 9 22 19 14 13 11 11 10
3 4 4 4 3 2 2 3 3 3 4 4 4 3 4 4 3 6 6 5 5 5 6 7 9 8 8 8 10 12 11 12 18 27 22 16 9 8
3 3 3 2 1 2 3 3 3 2 3 3 3 4 3 4 5 4 5 5 4 4 6 7 7 7 8 8 9 9 15 13 12 13 13 26 26 23
Wind_Direction
8 358 345 353 321 250 254 247 242 289 286 308 334 17 6 27 3 62 60 45 35 37 31 314 278 251 245 252 255 239 227 221 222 220 221 220 220 220
359 7 5 353 345 355 348 347 263 245 256 70 289 69 20 28 7 45 54 51 40 44 56 51 48 44 39 34 357 304 258 240 232 231 224 222 224 221
6 17 13 6 6 357 351 350 346 322 236 211 55 37 35 33 13 44 48 54 43 41 44 65 61 52 44 39 54 41 28 18 314 258 242 234 229 228
8 11 20 17 20 11 7 19 11 15 340 70 33 10 45 11 17 50 40 48 52 46 45 43 52 58 61 53 36 49 48 43 31 24 348 322 276 228
12 17 22 26 29 22 23 27 30 34 36 51 56 18 28 18 7 34 47 44 38 38 41 41 44 47 45 46 46 30 37 41 47 32 20 26 16 328
21 27 21 33 33 31 32 33 35 44 43 50 45 28 21 7 5 12 37 52 37 17 34 36 36 40 45 35 49 40 29 29 35 31 25 19 14 10
29 30 37 40 45 45 42 36 40 46 47 46 45 36 25 6 10 350 6 112 60 25 8 21 23 28 37 31 27 49 32 27 30 33 28 26 23 9
31 32 35 40 39 48 46 54 52 45 47 48 46 41 24 12 4 12 27 17 12 11 341 25 4 36 28 32 34 32 37 24 23 29 23 24 25 22
37 32 39 37 37 43 47 45 48 52 51 48 49 40 30 11 5 16 41 63 53 357 347 35 4 5 22 27 31 30 28 24 18 19 20 19 19 18
28 40 42 43 46 41 46 47 42 38 46 47 48 39 39 28 13 21 25 61 73 29 10 39 351 336 339 22 29 25 25 20 18 15 11 11 15 13
23 61 42 49 50 47 46 45 42 34 31 43 47 46 40 41 38 28 31 31 33 20 13 58 351 322 325 18 8 22 12 17 14 13 11 7 5 4
34 24 56 55 53 52 48 48 49 20 16 19 23 27 29 29 34 35 26 37 32 14 356 41 351 360 338 336 351 19 357 3 5 6 0 6 6 352
41 33 49 58 54 54 53 52 51 17 16 28 30 28 27 28 27 25 23 40 37 19 345 10 14 345 358 308 311 13 350 348 358 353 355 357 1 3
33 42 56 57 59 59 56 56 50 33 37 35 33 29 28 23 17 15 14 18 50 155 358 14 25 12 339 332 335 336 341 343 356 350 348 347 346 355
58 71 64 59 53 38 54 47 35 35 38 40 33 18 358 346 8 19 18 15 27 22 23 23 21 356 27 277 284 327 340 335 351 347 346 342 336 332
54 50 46 53 40 39 36 33 26 27 32 20 358 331 349 18 27 20 20 13 23 21 13 15 12 359 342 340 297 339 349 340 335 343 336 328 332 329
68 51 39 33 38 31 30 29 25 25 32 31 25 21 22 23 26 23 23 17 24 9 5 5 6 354 337 311 1 349 348 336 338 335 337 331 330 329
63 55 27 18 45 37 32 23 24 21 21 28 28 17 13 16 19 20 20 16 11 9 4 360 358 358 7 343 4 348 343 332 331 334 331 326 319 320
69 43 41 31 43 38 29 26 23 12 13 32 23 16 3 7 9 21 17 11 7 7 1 359 2 4 356 347 312 348 334 331 326 327 327 319 312 305
68 56 43 44 51 39 26 25 15 11 25 30 19 12 0 358 1 14 9 356 357 2 358 1 3 356 349 331 316 314 330 329 328 323 315 310 296 299
66 66 55 55 49 48 21 6 3 355 27 21 11 6 353 355 354 348 358 350 353 1 355 354 347 337 326 320 332 323 322 330 329 319 321 316 315 308
66 76 78 70 47 35 23 0 13 16 26 7 346 340 340 334 338 342 343 341 348 353 347 342 339 339 340 339 333 325 322 323 327 328 330 326 306 303
94 89 103 91 75 42 36 17 45 10 360 344 338 334 326 339 336 329 323 323 325 333 348 342 341 342 339 332 331 326 325 331 332 332 328 337 347 349